Location: Unspecified
(0.0000°N, 0.0000°E)
Time: 13:41:13
(UTC+00:00)

Vanguard 2 - Pass Details

Date: 19 November 2019
Orbit: 553 x 2938 km, 32.9° (Epoch: 08 December)

Event Time Altitude Azimuth Distance (km) Brightness Sun altitude
Rises 01:31:55 0° 220° (SW) 6,284 12.2 -57.5°
Reaches altitude 10° 01:36:40 10° 210° (SSW) 5,502 11.8 -56.5°
Maximum altitude 01:51:29 33° 152° (SSE) 4,142 11.3 -53.5°
Drops below altitude 10° 02:05:41 10° 94° (E) 5,341 12.2 -50.5°
Sets 02:10:07 0° 85° (E) 6,091 12.6 -49.6°
